This demonstration page uses our WeatherBlox Daily Observations layout. Learn more.

Left ArrowRight Arrow

41.55636, -103.73856

Hourly Observations for November 26, 2021

Temp ( °F °C ) Dew Point ( °F °C ) Humidity (%) Winds ( mph kmh ) Pressure ( in mb ) Visibility ( mi km ) Precip ( " mm )
12:58 am 00:58 Clear 44 6.8 9 -12.6 24 24 WNW 20 31 30.14 1021 10 16 N/A
1:58 am 01:58 Clear 41 5.1 11 -11.4 30 30 W 17 28 30.16 1021 10 16 N/A
2:58 am 02:58 Clear 40 4.7 11 -11.6 30 30 WSW 16 26 30.14 1021 10 16 N/A
3:58 am 03:58 Clear 45 7 10 -12.5 24 24 W 14 22 30.13 1020 10 16 N/A
4:58 am 04:58 Clear 43 6.1 9 -12.6 25 25 W 16 26 30.14 1021 10 16 N/A
5:58 am 05:58 Clear 46 7.7 6 -14.4 19 19 W 14 22 30.14 1021 10 16 N/A
6:58 am 06:58 Sunny 48 8.7 4 -15.3 17 17 WNW 20 31 30.11 1020 10 16 N/A
7:58 am 07:58 Sunny 48 8.8 4 -15.6 16 16 WNW 17 28 30.11 1020 10 16 N/A
8:58 am 08:58 Sunny 51 10.6 6 -14.5 16 16 W 15 24 30.10 1019 10 16 N/A
9:58 am 09:58 Sunny 57 14 7 -13.8 13 13 W 13 20 30.07 1018 10 16 N/A
10:58 am 10:58 Sunny 60 15.7 10 -12.5 13 13 NW 18 30 30.01 1016 10 16 N/A
11:58 am 11:58 Sunny 63 17.3 9 -12.6 12 12 NW 22 35 29.98 1015 10 16 N/A
12:58 pm 12:58 Sunny 61 16.3 9 -12.7 12 12 NW 21 33 29.96 1015 10 16 N/A
1:58 pm 13:58 Sunny 63 17.1 3 -16.2 9 9 NW 23 37 29.95 1014 10 16 N/A
2:58 pm 14:58 Sunny 59 15 2 -16.6 10 10 NW 16 26 29.96 1015 10 16 N/A
3:58 pm 15:58 Mostly Sunny 57 14.1 1 -17.3 10 10 WNW 15 24 29.95 1014 10 16 N/A
4:58 pm 16:58 Partly Cloudy 51 10.4 1 -17.5 12 12 W 6 9 29.96 1015 10 16 N/A
5:58 pm 17:58 Clear 51 10.8 N/A 12 12 NW 9 15 29.95 1014 10 16 N/A
6:58 pm 18:58 Mostly Cloudy 53 11.9 -2 -18.7 10 10 WNW 14 22 29.93 1013 10 16 N/A
7:58 pm 19:58 Mostly Clear 55 13 -2 -18.9 9 9 NW 17 28 29.94 1014 10 16 N/A
8:58 pm 20:58 Clear 50 10.1 -1 -18.4 12 12 WNW 17 28 29.97 1015 10 16 N/A
9:58 pm 21:58 Clear 49 9.4 -1 -18.3 12 12 WNW 17 28 29.95 1014 10 16 N/A
10:58 pm 22:58 Clear 39 3.8 2 -16.5 21 21 W 12 19 29.99 1016 10 16 N/A
11:58 pm 23:58 Clear 44 6.5 1 -17.1 17 17 NW 16 26 29.98 1015 10 16 N/A

Powered by AerisWeather